| time (UTC) | temp F | wind direction | speed MPH | gust MPH | rain 1hr in | rain 24hr in | rain mn in | humidity % | barometer mb |
| 20260504173357 | 70 | 330 | 11.0 | 0.0 | 0.00 | 0.00 | 0.00 | 31 | 1015.0 |
| 20260504171856 | 70 | 330 | 11.0 | 0.0 | 0.00 | 0.00 | 0.00 | 31 | 1015.0 |
| 20260504170356 | 70 | 330 | 11.0 | 0.0 | 0.00 | 0.00 | 0.00 | 31 | 1015.0 |
| 20260504160357 | 73 | 340 | 13.0 | 0.0 | 0.00 | 0.00 | 0.00 | 27 | 1015.0 |
| 20260504150356 | 75 | 330 | 14.0 | 0.0 | 0.00 | 0.00 | 0.00 | 24 | 1015.0 |
| 20260504140357 | 75 | 330 | 15.0 | 0.0 | 0.00 | 0.00 | 0.00 | 25 | 1016.0 |
| 20260504130356 | 75 | 320 | 17.0 | 0.0 | 0.00 | 0.00 | 0.00 | 25 | 1016.0 |
| 20260504110357 | 73 | 330 | 14.0 | 25.0 | 0.00 | 0.00 | 0.00 | 31 | 1018.0 |
| 20260504100356 | 73 | 350 | 11.0 | 23.0 | 0.00 | 0.00 | 0.00 | 27 | 1018.0 |
| 20260504081856 | 64 | 3.0 | 0.0 | 0.00 | 0.00 | 0.00 | 40 | 1019.0 | |
| 20260504080356 | 64 | 3.0 | 0.0 | 0.00 | 0.00 | 0.00 | 40 | 1019.0 | |
| 20260504070357 | 0 | 0.0 | 0.0 | 0.00 | 0.00 | 0.00 | |||
| 20260504050406 | 45 | 2.0 | 0.0 | 0.00 | 0.00 | 0.00 | 71 | 1019.0 | |
| 20260504044857 | 37 | 1.0 | 0.0 | 0.00 | 0.00 | 0.00 | 81 | 1019.0 | |
| 20260504043356 | 37 | 1.0 | 0.0 | 0.00 | 0.00 | 0.00 | 81 | 1019.0 | |
| 20260504041857 | 37 | 1.0 | 0.0 | 0.00 | 0.00 | 0.00 | 81 | 1019.0 | |
| 20260504040356 | 37 | 1.0 | 0.0 | 0.00 | 0.00 | 0.00 | 81 | 1019.0 | |
| 20260504034857 | 37 | 3.0 | 0.0 | 0.00 | 0.00 | 0.00 | 75 | 1019.0 | |
| 20260504033356 | 37 | 3.0 | 0.0 | 0.00 | 0.00 | 0.00 | 75 | 1019.0 | |
| 20260504031853 | 37 | 3.0 | 0.0 | 0.00 | 0.00 | 0.00 | 75 | 1019.0 | |
| 20260504030520 | 0 | 0.0 | 0.0 | 0.00 | 0.00 | 0.00 | |||
| 20260504024854 | 0 | 0.0 | 0.0 | 0.00 | 0.00 | 0.00 | |||
| 20260504023356 | 0 | 0.0 | 0.0 | 0.00 | 0.00 | 0.00 | |||
| 20260504021853 | 0 | 0.0 | 0.0 | 0.00 | 0.00 | 0.00 | |||
| 20260504020357 | 0 | 0.0 | 0.0 | 0.00 | 0.00 | 0.00 | |||
| 20260504014856 | 0 | 0.0 | 0.0 | 0.00 | 0.00 | 0.00 | |||
| 20260504013401 | 0 | 0.0 | 0.0 | 0.00 | 0.00 | 0.00 | |||
| 20260504012019 | 0 | 0.0 | 0.0 | 0.00 | 0.00 | 0.00 | |||
| 20260504010357 | 0 | 0.0 | 0.0 | 0.00 | 0.00 | 0.00 | |||
| 20260504005019 | 0 | 0.0 | 0.0 | 0.00 | 0.00 | 0.00 | |||
| 20260504003356 | 0 | 0.0 | 0.0 | 0.00 | 0.00 | 0.00 | |||
| 20260504001856 | 0 | 0.0 | 0.0 | 0.00 | 0.00 | 0.00 | |||
| 20260504000357 | 0 | 0.0 | 0.0 | 0.00 | 0.00 | 0.00 | |||
| 20260503234933 | 46 | 3.0 | 0.0 | 0.00 | 0.00 | 0.00 | 57 | 1019.0 | |
| 20260503233356 | 46 | 3.0 | 0.0 | 0.00 | 0.00 | 0.00 | 57 | 1019.0 | |
| 20260503231857 | 0 | 0.0 | 0.0 | 0.00 | 0.00 | 0.00 | |||
| 20260503230409 | 0 | 0.0 | 0.0 | 0.00 | 0.00 | 0.00 | |||
| 20260503224853 | 0 | 0.0 | 0.0 | 0.00 | 0.00 | 0.00 | |||
| 20260503223405 | 0 | 0.0 | 0.0 | 0.00 | 0.00 | 0.00 | |||
| 20260503221913 | 0 | 0.0 | 0.0 | 0.00 | 0.00 | 0.00 | |||
| 20260503220438 | 0 | 0.0 | 0.0 | 0.00 | 0.00 | 0.00 | |||
| 20260503214900 | 48 | 3.0 | 0.0 | 0.00 | 0.00 | 0.00 | 54 | 1019.0 | |
| 20260503213356 | 48 | 3.0 | 0.0 | 0.00 | 0.00 | 0.00 | 54 | 1019.0 | |
| 20260503211857 | 48 | 3.0 | 0.0 | 0.00 | 0.00 | 0.00 | 54 | 1019.0 | |
| 20260503210356 | 48 | 3.0 | 0.0 | 0.00 | 0.00 | 0.00 | 54 | 1019.0 | |
| 20260503204903 | 48 | 3.0 | 0.0 | 0.00 | 0.00 | 0.00 | 54 | 1019.0 | |
| 20260503203519 | 0 | 0.0 | 0.0 | 0.00 | 0.00 | 0.00 | |||
| 20260503201857 | 50 | 3.0 | 0.0 | 0.00 | 0.00 | 0.00 | 50 | 1019.0 | |
| 20260503200406 | 50 | 3.0 | 0.0 | 0.00 | 0.00 | 0.00 | 50 | 1019.0 | |
| 20260503194922 | 50 | 3.0 | 0.0 | 0.00 | 0.00 | 0.00 | 50 | 1019.0 | |
| 20260503193521 | 0 | 0.0 | 0.0 | 0.00 | 0.00 | 0.00 | |||
| 20260503191854 | 0 | 0.0 | 0.0 | 0.00 | 0.00 | 0.00 | |||
| 20260503190357 | 0 | 0.0 | 0.0 | 0.00 | 0.00 | 0.00 | |||
| 20260503185019 | 0 | 0.0 | 0.0 | 0.00 | 0.00 | 0.00 | |||
| 20260503183356 | 54 | 3.0 | 0.0 | 0.00 | 0.00 | 0.00 | 44 | 1019.0 | |
| 20260503181856 | 54 | 3.0 | 0.0 | 0.00 | 0.00 | 0.00 | 44 | 1019.0 | |
| 20260503180356 | 54 | 3.0 | 0.0 | 0.00 | 0.00 | 0.00 | 44 | 1019.0 | |
| 20260503174916 | 59 | 3.0 | 0.0 | 0.00 | 0.00 | 0.00 | 31 | 1019.0 |